Flag for Canada Past Weather in Conception Bay South, Newfoundland and Labrador, Canada — Yesterday and Last 2 Weeks

Now
57 °F

Low clouds.


Feels Like: 54 °F
Forecast: 45 / 65 °F
Wind: 13 mph from West

Location: St. John's

Current Time: May 24, 2016 at 9:26:04 AM

Latest Report: May 24, 2016 at 8:30 AM


Visibility: 12 mi

Pressure: 30.15 "Hg

Humidity: 82%

Dew Point: 52 °F

Location of Conception Bay SouthLocation

Past Weather in Conception Bay South — Graph

°F

Conception Bay South Temperature Yesterday

Maximum temperature yesterday: 68 °F (at 3:30 PM)
Minimum temperature yesterday: 37 °F (at 12:30 AM)
Average temperature yesterday: 50 °F

High & Low Weather Summary for the Past Weeks

 TemperatureHumidityPressure
High70 °F (May 9, 1:30 PM)100% (May 16, 8:30 AM)30.21 "Hg (May 16, 8:30 AM)
Low30 °F (May 12, 5:30 AM)28% (May 21, 4:30 PM)29.59 "Hg (May 17, 4:30 PM)
Average44 °F73%29.85 "Hg
* Reported May 9 7:30 AM — May 24 7:30 AM, Conception Bay South, Weather by CustomWeather, © 2016

Note: Actual official high and low records may vary slightly from our data, if they occured in-between our weather recording intervals... More about our weather records

Advertising

Conception Bay South Weather History for the Previous 24 Hours

Scroll right to see more
 ConditionsComfort  
Time TempWeatherWind HumidityBarometerVisibility
7:30 AM
Tue, May 24
54 °FFog.2 mph77%30.15 "Hg6 mi
6:30 AM46 °FFog.6 mph93%30.13 "Hg3 mi
5:30 AM48 °FDrizzle. Fog.6 mph94%30.12 "Hg1 mi
4:30 AM46 °FDrizzle. Fog.6 mph100%30.12 "Hg1 mi
3:30 AM48 °FFog.6 mph100%30.11 "Hg1 mi
2:30 AM50 °FFog.12 mph94%30.11 "Hg2 mi
1:30 AM50 °FFog.12 mph94%30.11 "Hg6 mi
12:30 AM50 °FMostly cloudy.17 mph88%30.11 "Hg12 mi
11:30 PM
Mon, May 23
52 °FCool.9 mph82%30.12 "HgN/A
10:30 PM52 °FCool.6 mph32%30.13 "HgN/A
9:30 PM55 °FCool.6 mph72%30.14 "HgN/A
8:30 PM54 °FCool.6 mph72%30.13 "HgN/A
7:30 PM59 °FCool.6 mph63%30.14 "HgN/A
6:30 PM59 °FBroken clouds.13 mph55%30.14 "Hg15 mi
5:30 PM54 °FPartly sunny.15 mph63%30.13 "Hg15 mi
4:30 PM63 °FMild.6 mph49%30.13 "HgN/A
3:30 PM68 °FMild.6 mph40%30.14 "HgN/A
2:30 PM63 °FScattered clouds.13 mph45%30.14 "Hg15 mi
1:30 PM57 °FRefreshingly cool.7 mph51%30.16 "HgN/A
12:30 PM57 °FPartly sunny.9 mph51%30.17 "Hg15 mi
11:30 AM52 °FPartly sunny.17 mph58%30.17 "Hg15 mi
10:30 AM55 °FScattered clouds.12 mph59%30.17 "Hg15 mi
9:30 AM52 °FPartly sunny.14 mph54%30.17 "Hg15 mi
Weather by CustomWeather, © 2016

See weather overviewHow to use our weather pages